Weather History for KEYF - November, 2013

Change the Weather History Date:

Thursday, November 7, 2013

  Actual Average (KILM) Record (KILM)
Temperature  
Mean Temperature 62 °F 59 °F  
Max Temperature 74 °F 70 °F 80 °F (2005)
Min Temperature 50 °F 48 °F 31 °F (1982)
Degree Days  
Heating Degree Days 3 7  
Month to date heating degree days 45  
Since 1 July heating degree days 142  
Cooling Degree Days 0 1  
Month to date cooling degree days 7  
Year to date cooling degree days 2021  
Growing Degree Days 12 (Base 50)    
Moisture  
Dew Point 60 °F    
Average Humidity 89    
Maximum Humidity 100    
Minimum Humidity 63    
Precipitation  
Precipitation 0.43 in 0.11 in 2.18 in (1959)
Month to date precipitation 0.73  
Year to date precipitation 51.43  
Snow  
Snow 0.00 in 0.00 in - ()
Month to date snowfall 0.0  
Since 1 July snowfall 0.0  
Since 1 September snowfall 0.0  
Snow Depth -    
Sea Level Pressure  
Sea Level Pressure 30.01 in    
Wind  
Wind Speed 2 mph (WNW)    
Max Wind Speed 10 mph    
Max Gust Speed -    
Visibility 8 miles    
Events Rain    
T = Trace of Precipitation, MM = Missing Value Source: NWS Daily Summary

Daily Weather History Graph

Daily Weather History Graph

Search for Another Location

Airport or City:

Trip Planner

Search our weather history database for the weather conditions in past years. The results will help you decide how hot, cold, wet, or windy it might be!

Date:

Astronomy

Nov. 07, 2013 Rise Set
Actual Time 6:40 AM EST 5:15 PM EST
Civil Twilight 6:14 AM EST 5:41 PM EST
Nautical Twilight 5:44 AM EST 6:11 PM EST
Astronomical Twilight 5:14 AM EST 6:41 PM EST
Moon 10:45 AM EST (11/7) 9:26 PM EST (11/7)
Length of Visible Light 11h 27m
Length of Day
10h 34m
Waxing Crescent, 22% of the Moon is Illuminated
Nov 7
Waxing Crescent
Nov 10
First Quarter
Nov 17
Full
Nov 25
Last Quarter
Dec 2
New

Hourly Weather History & Observations

Time (EST) Temp. Dew Point Humidity Pressure Visibility Wind Dir Wind Speed Gust Speed Precip Events Conditions
12:15 AM 63.7 °F 63.3 °F 99% 30.12 in 3.0 mi Calm Calm - 0.01 in Rain Rain
12:35 AM 63.5 °F 63.5 °F 100% 30.11 in 3.0 mi Calm Calm - 0.04 in   Heavy Drizzle
12:55 AM 63.7 °F 63.7 °F 100% 30.10 in 3.0 mi Calm Calm - 0.05 in   Heavy Drizzle
1:15 AM 63.5 °F 63.5 °F 100% 30.10 in 2.5 mi Calm Calm - 0.01 in Rain Heavy Rain
1:35 AM 63.5 °F 63.5 °F 100% 30.09 in 2.5 mi Calm Calm - 0.03 in   Heavy Drizzle
1:55 AM 63.5 °F 63.5 °F 100% 30.08 in 3.0 mi Calm Calm - 0.05 in   Heavy Drizzle
2:15 AM 63.5 °F 63.5 °F 100% 30.07 in 3.0 mi Calm Calm - 0.02 in   Heavy Drizzle
2:35 AM 63.1 °F 63.1 °F 100% 30.07 in 3.0 mi Calm Calm - 0.04 in   Heavy Drizzle
2:55 AM 63.1 °F 63.1 °F 100% 30.06 in 2.5 mi Calm Calm - 0.06 in Rain Rain
3:15 AM 63.1 °F 63.1 °F 100% 30.05 in 3.0 mi Calm Calm - 0.03 in Rain Rain
3:35 AM 63.0 °F 63.0 °F 100% 30.04 in 4.0 mi Calm Calm - 0.05 in Rain Heavy Rain
3:55 AM 63.0 °F 63.0 °F 100% 30.03 in 4.0 mi Calm Calm - 0.07 in Rain Heavy Rain
4:15 AM 63.0 °F 63.0 °F 100% 30.02 in 3.0 mi Calm Calm - 0.02 in Rain Heavy Rain
4:35 AM 62.8 °F 62.8 °F 100% 30.01 in 3.0 mi Calm Calm - 0.06 in   Heavy Drizzle
4:55 AM 63.0 °F 63.0 °F 100% 30.01 in 5.0 mi Calm Calm - 0.08 in Rain Heavy Rain
5:15 AM 62.8 °F 62.8 °F 100% 30.01 in 4.0 mi Calm Calm - 0.01 in   Heavy Drizzle
5:35 AM 63.0 °F 63.0 °F 100% 30.01 in 4.0 mi Calm Calm - 0.05 in Rain Rain
5:55 AM 62.8 °F 62.8 °F 100% 30.00 in 5.0 mi Calm Calm - 0.07 in Rain Heavy Rain
6:15 AM 63.0 °F 63.0 °F 100% 30.00 in 5.0 mi Calm Calm - 0.01 in   Heavy Drizzle
6:35 AM 62.8 °F 62.8 °F 100% 30.01 in 4.0 mi Calm Calm - 0.02 in   Drizzle
6:55 AM 62.8 °F 62.8 °F 100% 30.01 in 4.0 mi Calm Calm - 0.03 in   Heavy Drizzle
7:15 AM 62.8 °F 62.8 °F 100% 30.00 in 3.0 mi Calm Calm - N/A Rain Rain
7:35 AM 63.0 °F 63.0 °F 100% 30.00 in 7.0 mi Calm Calm - 0.01 in   Overcast
7:55 AM 62.8 °F 62.8 °F 100% 29.99 in 10.0 mi Calm Calm - 0.01 in   Mostly Cloudy
8:15 AM 63.3 °F 63.3 °F 100% 30.01 in 10.0 mi West 3.5 mph - N/A   Overcast
8:35 AM 63.5 °F 63.5 °F 100% 30.02 in 10.0 mi Calm Calm - N/A   Overcast
8:55 AM 63.7 °F 63.7 °F 100% 30.02 in 10.0 mi Calm Calm - N/A   Overcast
9:15 AM 64.4 °F 64.4 °F 100% 30.03 in 10.0 mi West 5.8 mph - N/A   Overcast
9:35 AM 64.4 °F 64.4 °F 100% 30.03 in 10.0 mi WSW 4.6 mph - N/A   Overcast
9:55 AM 65.1 °F 64.4 °F 98% 30.02 in 10.0 mi West 5.8 mph - N/A   Overcast
10:15 AM 66.2 °F 64.6 °F 94% 30.02 in 10.0 mi West 4.6 mph - N/A   Overcast
10:35 AM 66.2 °F 64.6 °F 94% 30.01 in 10.0 mi West 5.8 mph - N/A   Overcast
10:55 AM 66.6 °F 64.6 °F 93% 30.01 in 10.0 mi West 4.6 mph - N/A   Mostly Cloudy
11:15 AM 68.0 °F 64.6 °F 89% 29.99 in 10.0 mi WNW 5.8 mph - N/A   Mostly Cloudy
11:35 AM 68.9 °F 63.7 °F 83% 29.99 in 10.0 mi West 5.8 mph - N/A   Mostly Cloudy
11:55 AM 69.3 °F 61.9 °F 77% 29.98 in 10.0 mi WSW 6.9 mph - N/A   Scattered Clouds
12:15 PM 69.8 °F 62.1 °F 76% 29.96 in 10.0 mi WSW 5.8 mph - N/A   Scattered Clouds
12:35 PM 70.5 °F 61.3 °F 73% 29.96 in 10.0 mi WSW 5.8 mph - N/A   Clear
12:55 PM 70.7 °F 61.3 °F 72% 29.95 in 10.0 mi West 8.1 mph - N/A   Clear
1:15 PM 70.5 °F 61.7 °F 74% 29.94 in 10.0 mi SW 5.8 mph - N/A   Clear
1:35 PM 71.4 °F 61.7 °F 71% 29.93 in 10.0 mi SW 4.6 mph - N/A   Clear
1:55 PM 71.6 °F 61.0 °F 69% 29.93 in 10.0 mi West 4.6 mph - N/A   Clear
2:15 PM 74.1 °F 60.8 °F 63% 29.93 in 10.0 mi West 9.2 mph - N/A   Scattered Clouds
2:35 PM 73.4 °F 60.6 °F 64% 29.93 in 10.0 mi West 5.8 mph - N/A   Mostly Cloudy
2:55 PM 73.4 °F 60.4 °F 64% 29.93 in 10.0 mi West 5.8 mph - N/A   Overcast
3:15 PM 72.0 °F 60.3 °F 67% 29.93 in 10.0 mi West 3.5 mph - N/A   Overcast
3:35 PM 71.6 °F 60.8 °F 69% 29.92 in 10.0 mi WNW 3.5 mph - N/A   Overcast
3:55 PM 70.9 °F 61.5 °F 72% 29.93 in 10.0 mi WNW 3.5 mph - N/A   Overcast
4:15 PM 70.7 °F 61.3 °F 72% 29.93 in 10.0 mi NW 4.6 mph - N/A   Overcast
4:35 PM 69.8 °F 61.7 °F 75% 29.94 in 10.0 mi NW 10.4 mph - N/A Rain Light Rain
4:55 PM 67.1 °F 62.1 °F 84% 29.96 in 7.0 mi Calm Calm - N/A Rain Rain
5:55 PM 64.0 °F 63.3 °F 97% 29.97 in 7.0 mi Calm Calm - N/A   Mostly Cloudy
6:15 PM 63.5 °F 63.1 °F 99% 29.98 in 7.0 mi Calm Calm - N/A   Scattered Clouds
6:35 PM 63.1 °F 63.0 °F 99% 29.99 in 7.0 mi Calm Calm - N/A   Scattered Clouds
6:55 PM 63.1 °F 63.0 °F 99% 30.00 in 7.0 mi NW 4.6 mph - N/A   Scattered Clouds
7:15 PM 62.8 °F 62.6 °F 99% 30.00 in 7.0 mi NW 4.6 mph - 0.01 in   Clear
7:35 PM 62.8 °F 62.6 °F 99% 30.00 in 7.0 mi NW 4.6 mph - 0.01 in   Scattered Clouds
7:55 PM 62.8 °F 62.6 °F 99% 30.01 in 10.0 mi NW 6.9 mph - 0.01 in   Mostly Cloudy
8:15 PM 62.6 °F 61.7 °F 97% 30.01 in 10.0 mi NNW 4.6 mph - N/A   Scattered Clouds
8:35 PM 61.3 °F 59.7 °F 94% 30.02 in 10.0 mi NNW 5.8 mph - N/A   Clear
8:55 PM 60.1 °F 55.9 °F 86% 30.03 in 10.0 mi NNW 4.6 mph - N/A   Clear
9:15 PM 58.8 °F 54.5 °F 86% 30.04 in 10.0 mi NNW 4.6 mph - N/A   Clear
9:35 PM 57.4 °F 51.8 °F 82% 30.05 in 10.0 mi NNW 4.6 mph - N/A   Clear
9:55 PM 56.5 °F 47.1 °F 71% 30.06 in 10.0 mi NNW 5.8 mph - N/A   Clear
10:15 PM 54.9 °F 45.7 °F 71% 30.06 in 10.0 mi NNW 4.6 mph - N/A   Clear
10:35 PM 54.0 °F 42.3 °F 65% 30.06 in 10.0 mi NNW 5.8 mph - N/A   Clear
10:55 PM 52.9 °F 41.4 °F 65% 30.06 in 10.0 mi Calm Calm - N/A   Clear
11:15 PM 51.4 °F 41.7 °F 69% 30.07 in 10.0 mi Calm Calm - N/A   Clear
11:35 PM 50.9 °F 39.9 °F 66% 30.08 in 10.0 mi NNW 4.6 mph - N/A   Clear
11:55 PM 50.4 °F 38.3 °F 63% 30.09 in 10.0 mi NNW 4.6 mph - N/A   Clear